Météo Nord-Pas-de-Calais   La météo au plus près de chez vous

Station météorologique

Observations météo à Brive-Souillac (19147)

19147001 295 m Dernier relevé à 03:42
15.9°C
Humidité 67 % Vent 0 km/h 1021.8 hPa

Journée consultée

Samedi 5 Septembre 2026

Synthèse de la journée

Périodes de référence en UTC

Température maximale

33.6°C

à 18:00

06h 06h

Température minimale

15.9°C

à 03:42

18h 18h

Rafale maximale

9 km/h

à 02:06

00h 00h

Précipitations

0 mm

Cumul quotidien

06h 06h

Graphiques de la journée

Heure locale Réduire

Données détaillées

Relevés météo

Pas de 6 minutes Afficher les relevés infra-horaires
Relevés météo détaillés à Brive-Souillac pour le Samedi 5 Septembre 2026
Heure Température °C Point de rosée °C Humidité % Vent moyen (raf.), km/h Précipitations mm Visibilité m Pression hPa
03:42 15.9 °C 11.3 °C 74 % 3 km/h (5 km/h) 0 mm0 mm 60000 m 1021.9 hPa
03:36 16.1 °C 11.7 °C 75 % 4 km/h (6 km/h) 0 mm0 mm 60000 m 1021.8 hPa
03:30 16.3 °C 11.4 °C 73 % 3 km/h (6 km/h) 0 mm0 mm 60000 m 1021.9 hPa
03:24 16.4 °C 11.5 °C 73 % 0 km/h (2 km/h) 0 mm0 mm 60000 m 1021.7 hPa
03:18 16.5 °C 11.6 °C 73 % 0 km/h (3 km/h) 0 mm0 mm 60000 m 1021.8 hPa
03:12 16.7 °C 11.6 °C 72 % 0 km/h (3 km/h) 0 mm0 mm 60000 m 1021.8 hPa
03:06 17 °C 11.7 °C 71 % 0 km/h (3 km/h) 0 mm0 mm 60000 m 1021.9 hPa
03:00 17.3 °C 11.6 °C 69 % 0 km/h (3 km/h) 0 mm0 mm 60000 m 1021.8 hPa
02:54 17.7 °C 11.9 °C 69 % 0 km/h (3 km/h) 0 mm0 mm 60000 m 1021.9 hPa
02:48 17.8 °C 11.8 °C 68 % 0 km/h (2 km/h) 0 mm0 mm 60000 m 1021.9 hPa
02:42 18.1 °C 11.9 °C 67 % 0 km/h (3 km/h) 0 mm0 mm 60000 m 1021.8 hPa
02:36 18.4 °C 11.9 °C 66 % 2 km/h (3 km/h) 0 mm0 mm 60000 m 1021.8 hPa
02:30 18.6 °C 12.1 °C 66 % 2 km/h (4 km/h) 0 mm0 mm 60000 m 1021.7 hPa
02:24 18.8 °C 12.1 °C 65 % 2 km/h (4 km/h) 0 mm0 mm 60000 m 1021.6 hPa
02:18 19 °C 12 °C 64 % 4 km/h (7 km/h) 0 mm0 mm 60000 m 1021.7 hPa
02:12 19.5 °C 12 °C 62 % 6 km/h (9 km/h) 0 mm0 mm 60000 m 1021.8 hPa
02:06 19.9 °C 12.2 °C 61 % 7 km/h (9 km/h) 0 mm0 mm 60000 m 1021.7 hPa
02:00 20.1 °C 12.3 °C 61 % 7 km/h (9 km/h) 0 mm0 mm 60000 m 1021.7 hPa
01:54 20 °C 12.2 °C 61 % 7 km/h (8 km/h) 0 mm0 mm 60000 m 1021.6 hPa
01:48 20.1 °C 12.3 °C 61 % 8 km/h (9 km/h) 0 mm0 mm 60000 m 1021.6 hPa
01:42 20.1 °C 12.3 °C 61 % 8 km/h (9 km/h) 0 mm0 mm 60000 m 1021.5 hPa
01:36 20 °C 12.2 °C 61 % 9 km/h (12 km/h) 0 mm0 mm 60000 m 1021.5 hPa
01:30 20.3 °C 12.5 °C 61 % 11 km/h (12 km/h) 0 mm0 mm 60000 m 1021.4 hPa
01:24 20.6 °C 12.6 °C 60 % 11 km/h (13 km/h) 0 mm0 mm 60000 m 1021.4 hPa
01:18 20.7 °C 12.4 °C 59 % 11 km/h (14 km/h) 0 mm0 mm 60000 m 1021.4 hPa
01:12 20.7 °C 12.4 °C 59 % 10 km/h (12 km/h) 0 mm0 mm 60000 m 1021.4 hPa
01:06 20.7 °C 12.4 °C 59 % 10 km/h (12 km/h) 0 mm0 mm 60000 m 1021.3 hPa
01:00 20.9 °C 12.3 °C 58 % 11 km/h (14 km/h) 0 mm0 mm 60000 m 1021.2 hPa
00:54 21.1 °C 12.5 °C 58 % 12 km/h (14 km/h) 0 mm0 mm 60000 m 1021.1 hPa
00:48 20.9 °C 12.6 °C 59 % 12 km/h (14 km/h) 0 mm0 mm 60000 m 1021.1 hPa
00:42 21.3 °C 12.7 °C 58 % 12 km/h (15 km/h) 0 mm0 mm 60000 m 1020.9 hPa
00:36 21.7 °C 12.5 °C 56 % 13 km/h (16 km/h) 0 mm0 mm 60000 m 1020.9 hPa
00:30 21.3 °C 12.7 °C 58 % 13 km/h (16 km/h) 0 mm0 mm 60000 m 1020.9 hPa
00:24 21.3 °C 12.7 °C 58 % 13 km/h (14 km/h) 0 mm0 mm 60000 m 1020.9 hPa
00:18 21.3 °C 12.4 °C 57 % 13 km/h (15 km/h) 0 mm0 mm 60000 m 1021 hPa
00:12 21.6 °C 12.4 °C 56 % 12 km/h (15 km/h) 0 mm0 mm 60000 m 1020.9 hPa
00:06 21.7 °C 12.5 °C 56 % 12 km/h (14 km/h) 0 mm0 mm 60000 m 1020.9 hPa
00:00 21.8 °C 12.4 °C 55 % 12 km/h (14 km/h) 0 mm0 mm 60000 m 1020.9 hPa

Données via Météo-France

Relevés météo à Brive-Souillac

Cette page rassemble les observations de la station de Brive-Souillac : température, humidité, vent, précipitations et pression atmosphérique. Les graphiques facilitent le suivi de la journée, tandis que le tableau donne accès aux mesures horaires et infra-horaires disponibles.

Pour replacer ces mesures dans leur contexte, consultez la climatologie de Brive-Souillac ainsi que ses normales et records. Retrouvez aussi la carte des observations météo en temps réel.